• In Uzbekistan
  • List of Countries
  • For 7 days
  • Water Temperature
  • Satellite Maps
  • Weather Map
  • Weather Widgets
  • user-avatar
    Login

    Hourly Weather Cabreuva

    Today, 19 October, Thursday

    Time Temperature Precipitation Wind Pressure Humidity
    00:00 +25°C° 0 mm 3 mps 704 mmHg 51%
    01:00 +25°C° 0 mm 3 mps 703 mmHg 51%
    02:00 +24°C° 0 mm 3 mps 703 mmHg 51%
    03:00 +24°C° 0 mm 3 mps 703 mmHg 50%
    04:00 +24°C° 0 mm 3 mps 703 mmHg 51%
    05:00 +22°C° 0 mm 3 mps 703 mmHg 52%
    06:00 +22°C° 0 mm 3 mps 703 mmHg 52%
    07:00 +25°C° 0 mm 4 mps 703 mmHg 48%
    08:00 +27°C° 0 mm 4 mps 704 mmHg 43%
    09:00 +30°C° 0 mm 4 mps 705 mmHg 38%
    10:00 +33°C° 0 mm 4 mps 705 mmHg 34%
    11:00 +34°C° 0 mm 4 mps 705 mmHg 31%
    12:00 +36°C° 0 mm 4 mps 705 mmHg 27%
    13:00 +36°C° 0 mm 4 mps 704 mmHg 26%
    14:00 +36°C° 0 mm 4 mps 704 mmHg 26%
    15:00 +37°C° 0 mm 4 mps 703 mmHg 25%
    16:00 +35°C° 0 mm 3 mps 703 mmHg 28%
    17:00 +34°C° 0 mm 2 mps 703 mmHg 32%
    18:00 +31°C° 0 mm 1 mps 702 mmHg 35%
    19:00 +30°C° 0 mm 2 mps 702 mmHg 39%
    20:00 +29°C° 0 mm 2 mps 703 mmHg 42%
    21:00 +28°C° 0 mm 3 mps 703 mmHg 46%
    22:00 +27°C° 0 mm 2 mps 703 mmHg 49%
    23:00 +26°C° 0 mm 2 mps 703 mmHg 53%

    Tomorrow, 20 October, Friday

    Time Temperature Precipitation Wind Pressure Humidity
    00:00 +26°C° 0 mm 2 mps 703 mmHg 57%
    01:00 +25°C° 0 mm 2 mps 703 mmHg 58%
    02:00 +25°C° 0 mm 2 mps 703 mmHg 59%
    03:00 +25°C° 0 mm 2 mps 703 mmHg 59%
    04:00 +25°C° 0 mm 2 mps 703 mmHg 62%
    05:00 +24°C° 0 mm 2 mps 703 mmHg 65%
    06:00 +24°C° 0 mm 2 mps 704 mmHg 68%
    07:00 +25°C° 0 mm 2 mps 704 mmHg 63%
    08:00 +27°C° 0 mm 3 mps 705 mmHg 59%
    09:00 +28°C° 0 mm 3 mps 706 mmHg 55%
    10:00 +29°C° 0.1 mm 3 mps 706 mmHg 51%
    11:00 +30°C° 0.1 mm 3 mps 706 mmHg 47%
    12:00 +31°C° 0.1 mm 3 mps 706 mmHg 44%
    13:00 +31°C° 0.3 mm 3 mps 705 mmHg 45%
    14:00 +30°C° 0.3 mm 3 mps 705 mmHg 47%
    15:00 +30°C° 0.3 mm 3 mps 704 mmHg 49%
    16:00 +28°C° 0.1 mm 3 mps 704 mmHg 57%
    17:00 +27°C° 0.1 mm 3 mps 704 mmHg 65%
    18:00 +25°C° 0.1 mm 4 mps 704 mmHg 73%
    19:00 +23°C° 0.4 mm 4 mps 704 mmHg 76%
    20:00 +23°C° 0.4 mm 4 mps 704 mmHg 78%
    21:00 +22°C° 0.4 mm 4 mps 705 mmHg 81%
    22:00 +22°C° 0.4 mm 4 mps 704 mmHg 81%
    23:00 +22°C° 0.4 mm 4 mps 704 mmHg 82%

    Day after tomorrow, 21 October, Saturday

    Time Temperature Precipitation Wind Pressure Humidity
    00:00 +22°C° 0.4 mm 4 mps 704 mmHg 82%
    01:00 +21°C° 0.4 mm 3 mps 703 mmHg 81%
    02:00 +21°C° 0.4 mm 3 mps 703 mmHg 81%
    03:00 +21°C° 0.4 mm 3 mps 702 mmHg 80%
    04:00 +21°C° 0 mm 3 mps 702 mmHg 78%
    05:00 +21°C° 0 mm 2 mps 703 mmHg 75%
    06:00 +21°C° 0 mm 2 mps 703 mmHg 73%
    07:00 +24°C° 0 mm 3 mps 703 mmHg 64%
    08:00 +26°C° 0 mm 4 mps 704 mmHg 54%
    09:00 +28°C° 0 mm 5 mps 705 mmHg 45%
    10:00 +30°C° 0 mm 5 mps 705 mmHg 41%
    11:00 +32°C° 0 mm 5 mps 704 mmHg 37%
    12:00 +34°C° 0 mm 5 mps 704 mmHg 34%
    13:00 +34°C° 0 mm 5 mps 704 mmHg 32%
    14:00 +35°C° 0 mm 5 mps 703 mmHg 30%
    15:00 +35°C° 0 mm 5 mps 702 mmHg 28%
    16:00 +34°C° 0 mm 5 mps 703 mmHg 31%
    17:00 +33°C° 0 mm 4 mps 703 mmHg 34%
    18:00 +32°C° 0 mm 4 mps 703 mmHg 37%
    19:00 +29°C° 0.1 mm 3 mps 704 mmHg 44%
    20:00 +28°C° 0.1 mm 2 mps 704 mmHg 51%
    21:00 +26°C° 0.1 mm 2 mps 704 mmHg 58%
    22:00 +26°C° 0 mm 2 mps 704 mmHg 59%
    23:00 +25°C° 0 mm 1 mps 704 mmHg 60%

    22 October, Sunday

    Time Temperature Precipitation Wind Pressure Humidity
    00:00 +25°C° 0 mm 1 mps 704 mmHg 61%
    01:00 +24°C° 0.2 mm 2 mps 703 mmHg 63%
    02:00 +24°C° 0.2 mm 2 mps 703 mmHg 66%
    03:00 +24°C° 0.2 mm 2 mps 703 mmHg 68%
    04:00 +24°C° 0.3 mm 2 mps 703 mmHg 70%
    05:00 +23°C° 0.3 mm 2 mps 703 mmHg 72%
    06:00 +23°C° 0.3 mm 1 mps 704 mmHg 75%
    07:00 +23°C° 0.4 mm 2 mps 704 mmHg 73%
    08:00 +24°C° 0.4 mm 2 mps 705 mmHg 72%
    09:00 +24°C° 0.4 mm 2 mps 706 mmHg 71%
    10:00 +26°C° 0.2 mm 2 mps 705 mmHg 67%
    11:00 +27°C° 0.2 mm 3 mps 705 mmHg 62%
    12:00 +28°C° 0.2 mm 3 mps 705 mmHg 58%
    13:00 +27°C° 0.5 mm 3 mps 705 mmHg 62%
    14:00 +26°C° 0.5 mm 3 mps 704 mmHg 66%
    15:00 +26°C° 0.5 mm 3 mps 704 mmHg 69%
    16:00 +25°C° 1.1 mm 3 mps 704 mmHg 74%
    17:00 +24°C° 1.1 mm 3 mps 704 mmHg 79%
    18:00 +23°C° 1.1 mm 2 mps 704 mmHg 84%
    19:00 +21°C° 0.5 mm 3 mps 704 mmHg 85%
    20:00 +21°C° 0.5 mm 3 mps 704 mmHg 87%
    21:00 +21°C° 0.5 mm 3 mps 705 mmHg 88%
    22:00 +20°C° 0.5 mm 3 mps 705 mmHg 88%
    23:00 +20°C° 0.5 mm 3 mps 705 mmHg 89%

    23 October, Monday

    Time Temperature Precipitation Wind Pressure Humidity
    00:00 +20°C° 0.5 mm 3 mps 705 mmHg 89%
    01:00 +19°C° 0.6 mm 3 mps 705 mmHg 90%
    02:00 +19°C° 0.6 mm 4 mps 704 mmHg 90%
    03:00 +17°C° 0.6 mm 5 mps 704 mmHg 90%
    04:00 +18°C° 0.2 mm 4 mps 705 mmHg 89%
    05:00 +18°C° 0.2 mm 4 mps 705 mmHg 88%
    06:00 +18°C° 0.2 mm 4 mps 705 mmHg 88%
    07:00 +17°C° 0.2 mm 5 mps 706 mmHg 85%
    08:00 +19°C° 0.2 mm 5 mps 706 mmHg 82%
    09:00 +20°C° 0.2 mm 5 mps 706 mmHg 79%
    10:00 +20°C° 0.1 mm 5 mps 706 mmHg 76%
    11:00 +21°C° 0.1 mm 5 mps 706 mmHg 73%
    12:00 +22°C° 0.1 mm 5 mps 705 mmHg 70%
    13:00 +21°C° 0 mm 5 mps 705 mmHg 70%
    14:00 +21°C° 0 mm 5 mps 705 mmHg 71%
    15:00 +21°C° 0 mm 5 mps 704 mmHg 71%
    16:00 +20°C° 0.1 mm 5 mps 704 mmHg 74%
    17:00 +19°C° 0.1 mm 6 mps 704 mmHg 77%
    18:00 +17°C° 0.1 mm 6 mps 705 mmHg 79%
    19:00 +17°C° 0.1 mm 5 mps 705 mmHg 80%
    20:00 +16°C° 0.1 mm 5 mps 705 mmHg 81%
    21:00 +16°C° 0.1 mm 5 mps 705 mmHg 82%
    22:00 +16°C° 0 mm 5 mps 705 mmHg 83%
    23:00 +16°C° 0 mm 5 mps 705 mmHg 83%

    24 October, Tuesday

    Time Temperature Precipitation Wind Pressure Humidity
    00:00 +16°C° 0 mm 5 mps 705 mmHg 83%
    01:00 +17°C° 0 mm 4 mps 705 mmHg 84%
    02:00 +17°C° 0 mm 4 mps 704 mmHg 84%
    03:00 +17°C° 0 mm 4 mps 704 mmHg 84%
    04:00 +17°C° 0 mm 4 mps 704 mmHg 85%
    05:00 +17°C° 0 mm 4 mps 705 mmHg 85%
    06:00 +17°C° 0 mm 4 mps 705 mmHg 85%
    07:00 +18°C° 0 mm 4 mps 705 mmHg 81%
    08:00 +20°C° 0 mm 4 mps 706 mmHg 76%
    09:00 +21°C° 0 mm 4 mps 706 mmHg 71%
    10:00 +22°C° 0 mm 4 mps 706 mmHg 70%
    11:00 +22°C° 0 mm 4 mps 706 mmHg 70%
    12:00 +22°C° 0 mm 4 mps 706 mmHg 69%
    13:00 +23°C° 0 mm 4 mps 705 mmHg 68%
    14:00 +23°C° 0 mm 4 mps 705 mmHg 67%
    15:00 +23°C° 0 mm 5 mps 705 mmHg 67%
    16:00 +22°C° 0 mm 5 mps 705 mmHg 70%
    17:00 +21°C° 0 mm 5 mps 705 mmHg 74%
    18:00 +20°C° 0 mm 5 mps 705 mmHg 78%
    19:00 +19°C° 0 mm 5 mps 705 mmHg 79%
    20:00 +19°C° 0 mm 5 mps 705 mmHg 80%
    21:00 +17°C° 0 mm 5 mps 706 mmHg 82%
    22:00 +17°C° 0 mm 5 mps 705 mmHg 82%
    23:00 +18°C° 0 mm 4 mps 705 mmHg 83%
    Show more